Volver al catálogo

SHIYAN 27C

ActivoCienciaSSO
NORAD 63601·PAYLOAD·🇨🇳 China

Lanzado Apr 18, 2025 desde Taiyuan Satellite Launch Center

Loading…

Próximos Pases (próximas 24 horas)

TLE

ActualizadoSource: Space-Track

Época: Sep 14, 2026, 22:42 UTC

1 63601U 25078C   26257.94650149 -.00000008  00000-0  51079-4 0  9993
2 63601  99.6948 263.9108 0000858  85.2399 274.8837 13.57246689 69712

Sigue SHIYAN 27C en tiempo real con AllMySat

Download on the App Store